When you browse on this site, cookies collect data to enhance your experience and personalize the content and advertising you see.
Visit our Privacy Policy to learn more. By continuing to use the site, you agree to this use of cookies and data.
  • In Germany
  • List of Countries
  • For 7 days
  • Water Temperature
  • Satellite Maps
  • Weather Map
  • Weather Widgets
  • user-avatar
    Login

    Hourly Weather Krawcowizna

    Today, 22 May, Wednesday

    Time Temperature Precipitation Wind Pressure Humidity
    00:00 +11°C° 0 mm 4 mps 742 mmHg 92%
    01:00 +11°C° 0 mm 4 mps 742 mmHg 93%
    02:00 +11°C° 0 mm 4 mps 742 mmHg 94%
    03:00 +11°C° 0 mm 4 mps 742 mmHg 94%
    04:00 +11°C° 0 mm 4 mps 743 mmHg 94%
    05:00 +12°C° 0 mm 5 mps 743 mmHg 90%
    06:00 +13°C° 0 mm 5 mps 743 mmHg 87%
    07:00 +15°C° 0 mm 5 mps 743 mmHg 81%
    08:00 +15°C° 0.1 mm 5 mps 743 mmHg 79%
    09:00 +16°C° 0.1 mm 5 mps 743 mmHg 78%
    10:00 +17°C° 0.1 mm 5 mps 743 mmHg 76%
    11:00 +17°C° 0.4 mm 5 mps 743 mmHg 75%
    12:00 +19°C° 0.4 mm 5 mps 743 mmHg 74%
    13:00 +20°C° 0.4 mm 5 mps 743 mmHg 73%
    14:00 +20°C° 0.6 mm 4 mps 743 mmHg 73%
    15:00 +20°C° 0.6 mm 4 mps 743 mmHg 74%
    16:00 +20°C° 0.6 mm 4 mps 743 mmHg 75%
    17:00 +19°C° 0.3 mm 3 mps 743 mmHg 80%
    18:00 +18°C° 0.3 mm 3 mps 743 mmHg 85%
    19:00 +17°C° 0.3 mm 3 mps 743 mmHg 89%
    20:00 +16°C° 0.2 mm 2 mps 744 mmHg 91%
    21:00 +15°C° 0.2 mm 2 mps 744 mmHg 93%
    22:00 +14°C° 0.2 mm 2 mps 744 mmHg 94%
    23:00 +14°C° 0.1 mm 2 mps 745 mmHg 94%

    Tomorrow, 23 May, Thursday

    Time Temperature Precipitation Wind Pressure Humidity
    00:00 +14°C° 0.1 mm 2 mps 745 mmHg 95%
    01:00 +13°C° 0.1 mm 1 mps 745 mmHg 95%
    02:00 +13°C° 0 mm 1 mps 745 mmHg 95%
    03:00 +13°C° 0 mm 1 mps 745 mmHg 95%
    04:00 +13°C° 0 mm 1 mps 746 mmHg 96%
    05:00 +14°C° 0 mm 1 mps 746 mmHg 92%
    06:00 +16°C° 0 mm 1 mps 746 mmHg 88%
    07:00 +18°C° 0 mm 1 mps 747 mmHg 84%
    08:00 +19°C° 0 mm 2 mps 747 mmHg 79%
    09:00 +20°C° 0 mm 2 mps 747 mmHg 73%
    10:00 +21°C° 0 mm 2 mps 747 mmHg 67%
    11:00 +23°C° 0.5 mm 2 mps 747 mmHg 67%
    12:00 +22°C° 0.5 mm 3 mps 747 mmHg 67%
    13:00 +22°C° 0.5 mm 3 mps 747 mmHg 67%
    14:00 +22°C° 1 mm 4 mps 747 mmHg 72%
    15:00 +21°C° 1 mm 4 mps 747 mmHg 76%
    16:00 +21°C° 1 mm 5 mps 747 mmHg 80%
    17:00 +19°C° 0.3 mm 5 mps 747 mmHg 83%
    18:00 +17°C° 0.3 mm 5 mps 748 mmHg 86%
    19:00 +16°C° 0.3 mm 5 mps 748 mmHg 89%
    20:00 +15°C° 0 mm 5 mps 748 mmHg 90%
    21:00 +14°C° 0 mm 4 mps 748 mmHg 91%
    22:00 +13°C° 0 mm 4 mps 749 mmHg 93%
    23:00 +12°C° 0 mm 4 mps 749 mmHg 90%

    Day after tomorrow, 24 May, Friday

    Time Temperature Precipitation Wind Pressure Humidity
    00:00 +12°C° 0 mm 4 mps 749 mmHg 88%
    01:00 +12°C° 0 mm 4 mps 749 mmHg 86%
    02:00 +11°C° 0 mm 4 mps 749 mmHg 84%
    03:00 +11°C° 0 mm 3 mps 749 mmHg 82%
    04:00 +11°C° 0 mm 3 mps 749 mmHg 80%
    05:00 +11°C° 0 mm 3 mps 749 mmHg 80%
    06:00 +12°C° 0 mm 3 mps 749 mmHg 79%
    07:00 +13°C° 0 mm 3 mps 749 mmHg 79%
    08:00 +14°C° 0 mm 4 mps 749 mmHg 75%
    09:00 +17°C° 0 mm 4 mps 749 mmHg 70%
    10:00 +19°C° 0 mm 4 mps 749 mmHg 66%
    11:00 +20°C° 0 mm 4 mps 749 mmHg 64%
    12:00 +20°C° 0 mm 5 mps 749 mmHg 61%
    13:00 +21°C° 0 mm 5 mps 749 mmHg 59%
    14:00 +21°C° 0 mm 5 mps 748 mmHg 59%
    15:00 +21°C° 0 mm 4 mps 748 mmHg 59%
    16:00 +21°C° 0 mm 4 mps 748 mmHg 59%
    17:00 +20°C° 0 mm 4 mps 748 mmHg 65%
    18:00 +19°C° 0 mm 3 mps 748 mmHg 70%
    19:00 +17°C° 0 mm 3 mps 748 mmHg 76%
    20:00 +16°C° 0 mm 2 mps 748 mmHg 79%
    21:00 +15°C° 0 mm 2 mps 748 mmHg 82%
    22:00 +13°C° 0 mm 2 mps 748 mmHg 85%
    23:00 +13°C° 0 mm 1 mps 748 mmHg 85%

    25 May, Saturday

    Time Temperature Precipitation Wind Pressure Humidity
    00:00 +12°C° 0 mm 1 mps 748 mmHg 85%
    01:00 +11°C° 0 mm 0 mps 748 mmHg 85%
    02:00 +12°C° 0 mm 1 mps 748 mmHg 84%
    03:00 +12°C° 0 mm 1 mps 748 mmHg 83%
    04:00 +12°C° 0 mm 1 mps 748 mmHg 82%
    05:00 +14°C° 0 mm 2 mps 748 mmHg 80%
    06:00 +15°C° 0 mm 2 mps 748 mmHg 77%
    07:00 +17°C° 0 mm 3 mps 748 mmHg 75%
    08:00 +18°C° 0.1 mm 4 mps 747 mmHg 69%
    09:00 +20°C° 0.1 mm 4 mps 747 mmHg 63%
    10:00 +21°C° 0.1 mm 5 mps 747 mmHg 57%
    11:00 +21°C° 0.3 mm 5 mps 747 mmHg 59%
    12:00 +21°C° 0.3 mm 5 mps 747 mmHg 60%
    13:00 +21°C° 0.3 mm 6 mps 747 mmHg 62%
    14:00 +21°C° 0.1 mm 5 mps 747 mmHg 61%
    15:00 +21°C° 0.1 mm 5 mps 746 mmHg 60%
    16:00 +21°C° 0.1 mm 5 mps 746 mmHg 59%
    17:00 +19°C° 0 mm 4 mps 746 mmHg 64%
    18:00 +18°C° 0 mm 4 mps 746 mmHg 69%
    19:00 +16°C° 0 mm 3 mps 746 mmHg 73%
    20:00 +16°C° 0 mm 3 mps 747 mmHg 75%
    21:00 +14°C° 0 mm 3 mps 747 mmHg 76%
    22:00 +14°C° 0 mm 2 mps 747 mmHg 78%
    23:00 +13°C° 0 mm 3 mps 747 mmHg 81%

    26 May, Sunday

    Time Temperature Precipitation Wind Pressure Humidity
    00:00 +12°C° 0 mm 3 mps 747 mmHg 85%
    01:00 +11°C° 0 mm 4 mps 747 mmHg 88%
    02:00 +10°C° 0 mm 3 mps 747 mmHg 89%
    03:00 +9°C° 0 mm 3 mps 747 mmHg 91%
    04:00 +9°C° 0 mm 3 mps 747 mmHg 92%
    05:00 +10°C° 0 mm 4 mps 747 mmHg 87%
    06:00 +11°C° 0 mm 4 mps 747 mmHg 81%
    07:00 +13°C° 0 mm 5 mps 747 mmHg 76%
    08:00 +13°C° 0 mm 5 mps 747 mmHg 73%
    09:00 +13°C° 0 mm 6 mps 747 mmHg 70%
    10:00 +14°C° 0 mm 6 mps 747 mmHg 68%
    11:00 +14°C° 0 mm 6 mps 746 mmHg 67%
    12:00 +14°C° 0 mm 6 mps 746 mmHg 66%
    13:00 +14°C° 0 mm 6 mps 746 mmHg 66%
    14:00 +14°C° 0.1 mm 7 mps 746 mmHg 66%
    15:00 +14°C° 0.1 mm 7 mps 746 mmHg 66%
    16:00 +12°C° 0.1 mm 7 mps 746 mmHg 66%
    17:00 +13°C° 0.1 mm 6 mps 746 mmHg 69%
    18:00 +11°C° 0.1 mm 6 mps 746 mmHg 72%
    19:00 +10°C° 0.1 mm 5 mps 746 mmHg 75%
    20:00 +9°C° 0 mm 5 mps 746 mmHg 75%
    21:00 +8°C° 0 mm 5 mps 746 mmHg 75%
    22:00 +7°C° 0 mm 5 mps 747 mmHg 75%
    23:00 +7°C° 0 mm 5 mps 747 mmHg 76%

    27 May, Monday

    Time Temperature Precipitation Wind Pressure Humidity
    00:00 +6°C° 0 mm 5 mps 747 mmHg 77%
    01:00 +6°C° 0 mm 5 mps 747 mmHg 77%
    02:00 +6°C° 0 mm 5 mps 747 mmHg 78%
    03:00 +6°C° 0 mm 5 mps 748 mmHg 78%
    04:00 +5°C° 0 mm 5 mps 748 mmHg 79%
    05:00 +7°C° 0 mm 5 mps 748 mmHg 75%
    06:00 +8°C° 0 mm 5 mps 748 mmHg 72%
    07:00 +9°C° 0 mm 6 mps 748 mmHg 69%
    08:00 +12°C° 0 mm 5 mps 748 mmHg 66%
    09:00 +13°C° 0 mm 5 mps 748 mmHg 63%
    10:00 +14°C° 0 mm 5 mps 749 mmHg 59%
    11:00 +15°C° 0 mm 4 mps 748 mmHg 56%
    12:00 +17°C° 0 mm 4 mps 748 mmHg 53%
    13:00 +18°C° 0 mm 4 mps 748 mmHg 50%
    14:00 +19°C° 0 mm 4 mps 748 mmHg 49%
    15:00 +19°C° 0 mm 3 mps 747 mmHg 48%
    16:00 +19°C° 0 mm 3 mps 747 mmHg 48%
    17:00 +18°C° 0 mm 2 mps 747 mmHg 53%
    18:00 +17°C° 0 mm 2 mps 746 mmHg 59%
    19:00 +16°C° 0 mm 2 mps 746 mmHg 65%
    20:00 +15°C° 0 mm 2 mps 746 mmHg 66%
    21:00 +13°C° 0 mm 3 mps 746 mmHg 67%
    22:00 +13°C° 0 mm 3 mps 745 mmHg 68%
    23:00 +12°C° 0 mm 3 mps 745 mmHg 71%
    Show more